Theta_e
315 314 315 315 316 317 317 316 316 317 316 315 315 315 315 316 316 315 316 316 316 316 316 315 315 312 310 308 305 304 303 303 302 300 299 298 298 298 297 297 297 297 298 298
315 315 315 315 315 315 315 315 315 315 316 314 314 315 314 314 315 316 315 315 315 315 315 315 315 312 309 308 305 304 304 303 303 301 300 298 298 297 296 296 296 297 297 298
314 315 315 315 315 316 315 314 314 315 314 313 313 314 313 314 315 315 315 315 314 314 314 314 313 312 309 307 306 306 305 304 304 302 299 297 296 296 296 296 296 296 296 297
314 315 315 314 314 314 314 314 315 315 314 315 315 316 313 314 312 311 314 315 314 314 313 314 313 310 308 307 306 305 305 305 304 302 300 299 299 299 299 298 296 295 296 296
314 313 313 314 314 314 314 312 314 315 315 314 315 313 313 313 312 311 311 315 315 314 315 313 312 310 308 307 306 306 304 304 303 302 302 301 299 297 296 295 294 294 295 296
311 310 311 313 310 311 310 312 312 312 311 313 312 313 313 313 313 313 311 314 314 314 314 312 310 309 308 307 306 306 305 304 303 302 301 301 300 297 296 295 294 294 294 295
312 311 310 310 312 309 310 313 313 315 314 316 312 312 315 315 312 311 310 313 314 314 314 311 309 309 309 308 307 306 305 305 303 303 302 300 300 298 296 296 295 294 293 294
313 313 311 308 311 313 310 313 315 314 313 314 311 313 313 313 312 315 315 315 314 314 313 312 310 310 310 310 308 308 307 306 304 304 304 301 299 299 297 295 294 293 293 293
312 312 308 308 310 311 312 311 313 313 306 312 313 312 312 312 312 310 310 312 312 312 312 311 310 310 310 309 310 310 309 307 305 305 304 302 298 298 297 295 294 293 292 292
312 313 310 306 306 307 309 308 312 312 310 310 312 311 314 313 314 311 311 310 312 312 311 310 310 310 310 309 310 309 307 307 306 305 305 303 300 297 295 294 293 293 292 292
312 312 310 306 306 309 306 308 309 310 314 311 312 313 312 311 312 311 309 312 313 313 312 312 311 310 309 309 309 309 308 307 306 305 304 302 300 297 295 293 293 292 291 291
311 313 313 311 310 307 308 309 310 311 311 309 312 313 311 312 309 308 309 312 313 313 312 312 311 311 310 309 308 310 309 307 306 304 302 300 299 297 294 292 291 291 290 291
310 311 314 312 311 307 307 308 309 310 310 312 312 312 312 312 310 310 309 312 312 312 312 311 311 311 310 310 310 309 309 308 304 302 300 298 297 295 293 292 290 290 290 290
311 311 313 314 313 312 310 308 307 309 311 311 311 310 311 311 311 311 311 312 312 312 312 312 311 311 310 310 309 309 308 306 304 301 299 297 296 294 292 290 289 289 289 290
312 311 310 311 312 311 311 311 310 310 309 309 310 310 310 310 310 310 311 311 310 310 311 311 311 310 310 309 309 308 307 305 303 300 298 296 294 292 290 289 288 288 289 289
311 313 310 311 309 309 310 309 310 310 310 310 310 310 310 310 310 310 310 310 310 311 311 311 311 310 310 309 309 308 307 306 303 300 297 295 293 291 289 288 288 288 288 288
308 310 311 314 311 310 312 311 312 311 311 311 311 311 311 311 310 311 311 311 311 311 312 311 311 311 310 310 309 308 307 304 301 299 297 295 293 291 290 288 287 288 288 287
314 312 312 314 313 314 311 311 310 311 312 311 311 312 312 312 312 312 312 312 312 311 311 311 310 310 310 309 308 307 305 302 300 298 296 294 292 290 289 287 287 287 287 287
313 314 314 315 315 314 312 312 311 311 312 311 311 311 311 311 311 311 312 312 311 311 310 310 310 309 308 308 308 307 305 302 299 297 295 294 292 289 288 286 287 287 287 286
311 312 314 315 317 317 313 311 310 310 312 310 311 311 311 310 311 311 311 311 310 310 310 310 309 309 308 307 307 305 304 302 301 300 298 294 291 289 287 286 287 287 286 287
311 311 313 315 316 314 312 310 310 311 313 310 310 310 310 309 309 310 310 310 310 309 309 309 309 308 308 307 306 305 304 305 303 297 294 292 290 288 286 286 286 286 287 288
311 311 312 312 312 313 306 308 310 308 304 302 302 304 304 306 308 308 308 307 307 306 307 307 307 307 306 306 304 303 305 302 300 297 294 290 289 286 285 285 286 286 286 286
302 299 298 300 304 304 300 297 296 301 299 299 300 300 300 301 302 302 302 303 304 305 307 307 306 305 304 303 302 303 303 300 298 295 292 290 287 285 284 285 285 284 285 288
294 295 296 295 301 295 293 295 298 295 294 294 294 295 296 298 299 300 300 301 302 304 304 304 305 306 306 304 301 299 298 296 294 291 289 287 285 283 283 284 283 286 288 285
291 290 290 290 292 293 294 294 293 293 292 293 293 295 296 297 297 299 300 300 300 300 299 299 300 301 302 305 305 300 297 296 292 289 287 285 282 282 282 283 285 287 285 281
290 290 290 291 292 291 291 291 291 291 289 288 290 290 290 291 293 294 295 296 296 296 297 297 298 299 299 300 301 301 299 295 290 288 285 284 281 281 283 284 285 283 280 279
Wind_Speed
11 5 11 15 17 16 15 16 17 22 11 10 15 19 16 19 27 24 31 36 35 36 34 32 34 36 33 37 39 39 37 36 35 37 36 34 31 29 26 25 24 22 20 15
4 13 20 9 12 7 10 14 21 20 12 8 10 13 12 10 19 33 31 36 39 25 20 25 30 33 34 39 40 39 39 36 37 38 36 34 31 30 27 27 27 25 21 17
19 10 14 7 8 10 13 11 16 17 9 6 5 8 12 9 25 30 34 41 36 28 24 25 29 31 34 41 43 41 40 37 39 39 37 36 33 31 31 31 30 28 24 20
16 20 20 15 18 11 22 9 10 12 7 6 4 14 8 6 12 11 26 39 32 24 20 26 30 31 35 38 39 39 38 38 39 40 41 41 40 38 35 31 30 30 27 24
7 4 6 9 11 9 6 2 2 4 5 6 5 9 6 9 9 11 12 33 36 25 23 26 29 29 30 34 37 37 38 39 40 42 43 41 39 36 33 32 32 31 29 27
15 4 3 4 3 2 3 2 3 3 2 10 11 12 3 6 8 6 9 29 29 22 17 17 22 25 29 31 34 36 38 39 41 42 43 41 40 38 38 36 34 32 31 29
6 17 2 4 4 2 3 3 4 4 1 16 10 10 17 5 8 11 12 25 25 23 23 17 24 29 31 33 35 38 39 40 42 42 41 42 40 41 42 39 36 35 33 30
3 10 14 8 12 7 9 8 6 7 12 21 5 9 9 10 12 20 31 34 16 19 20 20 25 28 31 33 35 38 39 40 43 42 38 40 42 42 43 42 39 37 35 31
7 11 4 6 2 8 6 6 3 2 3 4 12 14 10 9 10 10 13 13 14 15 17 21 23 28 31 32 33 37 39 40 42 41 39 39 42 44 45 44 41 38 35 33
5 10 7 4 3 3 3 1 2 2 2 8 19 15 16 14 19 7 5 8 13 15 18 19 24 29 32 31 32 35 39 43 42 41 40 40 42 44 45 44 43 40 37 33
3 5 7 7 8 10 2 4 5 1 5 5 11 14 4 9 6 9 8 7 8 10 16 19 22 29 32 31 33 36 39 43 44 46 44 43 43 45 46 46 43 40 37 34
8 3 6 16 8 2 5 11 12 10 15 5 11 24 8 6 8 9 7 9 20 27 23 20 22 27 31 32 33 36 39 43 47 48 46 45 45 45 47 46 43 39 36 32
9 3 2 8 14 1 5 5 12 11 11 19 18 22 13 23 17 13 11 24 21 24 23 26 27 30 31 32 35 39 41 43 46 48 48 48 48 47 47 46 43 39 35 31
5 5 8 14 17 15 11 12 12 14 11 20 21 25 32 29 26 26 30 32 30 32 29 37 35 34 36 36 36 39 41 42 45 46 49 49 49 48 45 43 41 37 34 31
5 11 18 24 24 25 22 23 23 23 18 20 25 28 27 31 24 26 37 33 29 31 33 33 35 35 38 38 39 40 40 42 43 45 47 49 49 46 41 42 41 38 34 31
10 9 13 23 30 31 29 28 26 31 30 32 36 32 36 32 41 38 42 44 32 34 39 42 41 40 40 40 41 42 43 43 43 45 47 48 48 45 41 42 42 39 35 32
8 8 9 22 23 27 24 32 37 34 32 30 29 38 38 34 32 34 45 39 40 35 38 36 35 36 33 34 38 41 41 43 43 43 45 47 47 44 41 43 43 39 35 31
19 21 15 19 17 24 18 23 33 37 35 34 34 37 36 32 48 45 30 36 43 41 47 49 44 42 37 30 29 32 37 40 41 42 44 45 45 42 42 46 44 40 35 29
24 23 16 15 19 24 3 23 26 21 33 33 29 31 34 40 38 35 47 46 43 43 49 47 45 42 36 29 28 28 33 37 39 41 43 44 43 41 43 47 44 38 34 28
27 27 21 19 23 26 17 21 25 29 23 13 23 28 26 21 14 18 43 44 43 35 36 33 30 30 28 28 29 29 31 35 38 39 42 43 43 42 46 47 43 37 32 26
7 15 24 24 21 13 5 16 16 15 21 18 23 25 20 15 16 31 36 40 43 39 38 33 29 31 29 27 28 31 32 35 35 39 40 42 42 43 45 47 42 37 31 32
9 6 7 11 19 27 17 7 12 13 26 30 29 29 28 30 29 29 32 33 29 28 28 27 26 31 32 30 31 32 34 33 35 37 39 41 44 46 49 47 41 36 32 26
6 1 4 5 5 11 15 15 29 22 26 24 24 29 27 29 33 35 33 35 35 33 31 28 31 31 32 32 32 34 36 36 36 40 41 44 44 49 51 46 41 35 27 27
10 14 7 14 4 25 46 44 23 24 27 28 27 28 29 27 34 39 40 40 39 36 33 32 31 31 30 33 35 35 37 37 38 41 41 42 47 53 50 45 39 32 30 30
10 18 13 22 21 26 23 27 37 41 38 33 35 29 27 26 31 33 34 34 35 36 37 35 35 35 35 33 35 41 43 42 41 42 41 42 52 52 48 42 36 33 30 27
12 15 14 17 23 24 29 40 36 35 39 38 30 34 36 34 37 39 39 37 39 43 43 41 41 39 38 39 39 41 45 46 46 45 45 48 56 56 49 43 36 32 28 24
Wind_Direction
186 182 218 216 215 234 255 264 262 271 264 188 230 246 251 249 270 265 265 269 267 266 267 258 244 228 229 225 222 225 225 222 218 218 221 224 227 231 233 234 234 233 237 242
204 219 235 255 259 258 272 275 271 276 291 183 256 259 262 251 258 261 266 268 271 266 254 244 230 220 222 220 219 224 227 224 221 223 225 228 230 231 235 235 234 235 236 242
227 207 217 228 241 260 240 245 262 266 280 217 272 260 250 241 250 261 264 268 266 260 249 228 217 224 223 218 221 223 226 225 224 226 224 225 225 228 231 234 235 234 234 240
253 240 245 249 256 230 268 240 260 270 268 242 91 289 222 236 266 239 254 269 269 265 236 226 225 227 224 223 223 224 226 227 226 226 226 229 234 236 240 240 235 233 235 240
219 175 198 234 236 187 262 65 303 290 271 315 218 275 232 190 243 236 242 257 272 272 248 219 227 230 226 222 222 221 223 227 228 228 230 232 233 236 237 235 233 235 236 239
257 127 222 219 78 105 121 316 246 249 228 256 203 219 195 187 212 215 228 250 256 261 226 225 225 221 218 217 218 220 221 224 227 230 233 233 234 232 232 233 234 234 235 239
229 235 145 148 152 174 171 149 294 299 248 264 181 240 252 217 182 197 217 234 256 227 234 225 212 210 211 217 217 219 220 224 226 231 235 235 235 233 236 237 235 234 235 239
257 273 176 180 213 176 179 177 174 228 260 279 155 253 255 221 229 234 236 238 231 203 218 229 223 218 216 220 220 221 221 224 227 231 235 237 236 235 235 236 236 237 239 241
196 249 39 153 192 161 180 196 211 269 67 315 266 276 280 233 247 241 219 178 187 212 229 227 226 228 224 225 229 227 225 226 228 229 233 238 236 236 235 234 235 236 237 238
248 260 175 146 58 271 189 308 115 233 237 243 278 288 273 272 263 231 154 218 229 238 238 240 233 235 235 235 237 233 229 229 228 228 234 238 237 235 236 234 234 235 235 237
235 226 248 127 201 180 163 237 228 270 189 210 266 274 258 145 153 165 207 218 236 235 251 249 247 241 240 244 242 237 234 232 231 232 234 237 237 236 235 234 232 232 232 233
203 168 250 245 232 230 237 215 205 222 240 234 236 261 182 261 133 139 162 204 269 273 254 248 253 247 243 243 243 241 239 237 236 235 235 236 237 237 234 232 230 229 229 231
352 280 266 277 294 265 225 230 246 254 254 249 245 253 246 270 269 264 269 293 278 265 239 244 248 241 245 248 248 245 243 244 239 237 235 234 235 236 233 230 226 225 226 229
93 269 266 250 253 289 283 253 241 239 254 259 257 271 279 272 275 283 280 279 277 272 257 261 255 246 253 254 252 250 248 247 242 238 236 234 235 235 233 228 224 223 224 229
173 216 221 236 245 262 263 261 274 275 261 253 270 269 267 271 277 269 272 279 275 284 278 269 264 260 258 253 254 251 251 247 242 238 237 235 235 235 231 225 221 220 223 230
186 226 215 233 239 250 260 265 259 251 254 254 255 260 263 259 266 271 274 272 284 273 274 272 268 268 266 264 258 256 249 248 243 239 236 234 234 233 228 222 218 217 221 228
191 201 207 248 234 240 248 243 250 256 250 244 251 250 256 263 257 259 266 285 280 276 276 279 276 273 270 264 264 259 255 245 239 236 233 233 234 231 226 219 215 216 221 228
231 236 239 253 250 231 227 227 233 243 248 249 248 251 257 258 258 265 271 273 275 282 289 285 280 279 279 274 262 255 247 243 238 233 232 231 232 228 222 214 211 213 219 226
231 236 248 245 241 257 229 218 224 230 241 244 257 257 253 261 262 270 268 263 268 273 278 285 286 283 277 272 257 245 238 236 234 233 232 231 228 223 218 211 209 211 218 225
235 234 235 242 249 252 240 237 245 258 261 248 243 249 253 254 252 254 260 267 269 274 280 289 290 288 280 266 253 238 235 232 232 234 231 228 224 220 214 208 208 212 217 223
231 231 242 240 245 251 244 272 283 247 264 271 268 270 273 262 254 265 275 276 279 279 278 281 281 285 281 268 251 238 234 235 234 229 227 224 221 216 208 206 208 212 216 228
264 264 245 251 267 267 7 303 265 335 5 358 353 347 345 342 343 355 349 347 345 326 302 294 293 296 281 270 256 244 244 238 232 229 227 223 216 208 203 203 208 210 214 221
273 20 301 304 332 320 338 323 315 306 344 336 329 321 318 317 319 318 320 319 320 322 323 323 309 296 288 271 257 253 252 242 234 229 225 220 213 204 200 202 205 204 212 225
303 299 314 322 346 315 315 320 354 347 337 326 322 311 302 310 307 306 309 304 302 304 306 305 303 300 298 294 271 259 253 248 240 231 224 216 208 200 197 198 201 205 214 224
288 309 296 285 288 304 305 319 320 322 319 329 322 318 327 326 312 309 307 305 304 305 299 296 288 283 283 281 274 264 257 251 241 234 224 213 204 199 194 196 201 208 216 218
264 269 283 287 302 303 308 316 321 319 328 325 323 322 316 315 303 298 293 299 302 299 297 293 288 284 282 277 269 259 254 248 240 231 223 210 202 197 193 194 196 204 208 211